DECAYED
Showing default

PICO-02D024, 60569 (Decayed)

Orbit data source: Space-Track

PICO-02D024, 60569 was a payload satellite owned by Apogeo Space (IT) in LEO that was launched on Fri, 16 Aug 2024 UTC via an FALCON 9 launch vehicle from the Air Force Western Test Range (AFWTR). Payload-class satellites include a variety of spacecraft equipped with specific instruments for various scientific and technological missions. These include communications satellites like Starlink; space stations such as the ISS; scientific satellites like the Hubble; Earth observation satellites from companies like Planet Labs, Umbra, and HawkEye 360; GPS; miniature CubeSats for education and research; and military/defense satellites.

Not visible in the next 10 days
Identifier
60569, 2024-149DF
Orbit
Decayed
Country
Flag of ITIT
Related business
Manufacturer
Apogeo Space
Mission
Decayed Commercial Communications
Bus & Motor
CUBESAT 0.3U, Unknown motor
Mass
0.5 kg wet, 0.5 kg dry
Launch date (UTC)
2024-08-16 (2 years ago)
Launch vehicle
FALCON 9
Launch site
Air Force Western Test Range (AFWTR)
Object type
Payload
Rocket body
Debris
Shape & HBR
Box, 0.1 m
Radar Cross Section
0.008 m², Medium (>0.1 m² and < 1m²)

Expand to show TLE details & history
Last TLE update: 4 months ago

TLE from 4 months ago
0 PICO-02D024
1 60569U 24149DF  26033.73415338  .12918043  26154-5  28726-2 0  9992
2 60569  97.6361 132.0017 0012276 302.0457  57.9643 16.30146191 81211
Epoch: 2026-02-02T17:37Z
TLE epoch observation values (Epoch: 2026-02-02T17:37:10.852Z)
Latitude
-0.00004°
Longitude
94.7813°
Altitude
191.106 km
Speed
7.794 km/s
True Right ascension
08h 48m 00s
True Declination
0° 00' 00"
Sunlit
Object was in full shadow at epoch
Visualization orbit readout
Latitude
Unknown
Longitude
Unknown
Altitude
Unknown
Speed
Unknown
Apparent Right ascension
Unknown
Apparent Declination
Unknown
Sunlit
N/A
Visualization observer readout
Local Sidereal Time
14:03:58
Azimuth
Unknown
Elevation
Unknown
Doppler factor
Unknown
Orbital elements
Apogee altitude
197.04 km
Perigee altitude
180.916 km
Semi-major axis
6,567.115 km
Eccentricity
0.00123
Inclination
97.6361°
RAAN
132.0017°
Arg. of periapsis
302.0457°
True anomaly
58.08365°
Mean anomaly
57.9643°
Eccentric anomaly
58.02396°
Mean motion
4.07832 °/min
Orbital period
88.27 mins
BSTAR
0.0028726
Loading maneuver chart data...
Computing Atmospheric mass density...
Loading historical data...
Loading historical data...
Loading historical data...
Loading historical data...
Loading historical data...
Loading historical data...
Loading historical data...

Documentation

Showing up to 5 results
|